Location: Arroyo de Bañuelos
(41.0308°N, 5.2498°W)
Time: 10:14:47
(UTC+00:00)

Daily predictions for brighter satellites

Satellite Brightness Start Highest point End
(mag) Time Altitude Azimuth Time Altitude Azimuth Time Altitude Azimuth
Terra 2.0 20:20:08 10° SSE 20:24:44 59° ENE 20:29:22 10° N
CENTAUR R/B 2.4 20:19:56 10° SW 20:25:08 85° NW 20:31:47 10° NE
SPOT 5 3.8 20:20:55 10° S 20:25:34 51° W 20:30:30 10° NNW
Cosmos 44 Rocket 4.4 20:24:17 10° NNW 20:29:00 35° NE 20:33:36 10° ESE
Resurs 01 Rocket 4.5 20:26:53 10° WSW 20:29:04 14° W 20:31:16 10° WNW
Meteor 1-27 Rocket 3.8 20:25:40 10° S 20:31:10 60° E 20:36:38 10° NNE
CZ-4B R/B 3.9 20:27:38 10° S 20:31:25 72° WSW 20:35:07 10° NNW
CSL-04 Rocket 4.3 20:26:30 10° S 20:31:43 57° W 20:36:56 10° NNW
CZ-3 Stage 3 3.7 20:26:59 10° W 20:34:17 21° SW 20:37:47 10° S
Aureole 2 3.9 20:35:29 10° S 20:38:26 67° ESE 20:41:15 10° NNE
SKYMED 3 4.4 20:35:27 10° NNE 20:39:24 61° E 20:43:19 10° S
Cosmos 2221 4.0 20:36:56 10° SSW 20:40:54 38° WNW 20:44:52 10° N
Cosmos 2082 3.8 20:35:34 10° SSW 20:41:11 81° WNW 20:46:49 10° NNE
IRAS Rocket 4.3 20:35:47 10° SSE 20:41:19 87° ENE 20:46:57 10° NNW
MetOp-B 4.2 20:36:43 10° SSE 20:42:03 81° ENE 20:47:26 10° NNW
Meteor 1-11 Rocket 3.8 20:37:41 10° N 20:43:14 85° W 20:48:48 10° S
Cosmos 2263 Rocket 4.1 20:40:19 10° WSW 20:45:21 34° WNW 20:50:25 10° N
CZ-4 R/B 2.2 20:42:19 10° S 20:45:54 45° W 20:49:34 10° NNW
CZ-4B DEB 4.5 20:41:49 10° S 20:47:18 72° WSW 20:52:48 10° NNW
Okean-O 3.2 20:44:49 11° SE 20:48:45 41° ENE 20:52:52 10° N
Cosmos 2266 Rocket 4.0 20:44:06 10° N 20:50:20 71° E 20:56:37 10° SSE
Spot 2 Rocket 3.8 20:45:39 10° SSE 20:50:33 54° ENE 20:55:30 10° N
Helios 1A Rocket 2.1 20:48:17 10° NNE 20:51:25 85° ESE 20:54:31 10° SSW
NOSS 3-2 (A) 3.1 20:48:24 10° SSW 20:53:03 51° ESE 20:58:25 10° NE
CZ-4B R/B 3.2 20:48:15 10° SSE 20:53:43 87° WSW 20:59:08 10° NNW
Cosmos 1842 Rocket 4.1 20:51:26 10° SSE 20:55:34 40° E 20:59:44 10° NNE
Cosmos 1867 4.0 20:50:32 10° NW 20:55:54 58° WSW 21:01:13 10° SSE
IRS-1A Rocket 4.4 20:50:42 10° SSE 20:56:36 83° ENE 21:02:29 10° NNW
Cosmos 773 Rocket 3.9 20:52:30 10° SSW 20:57:35 75° ESE 21:02:44 10° NNE
Meteor 2-20 4.4 20:54:19 10° S 21:00:23 90° E 21:06:29 10° N
BREEZE-M DEB (TANK) 2.2 20:58:44 10° NW 21:00:50 33° NNE 21:02:13 14° E
ADEOS 3.6 20:55:44 10° SSE 21:00:56 85° WSW 21:06:11 10° NNW
Meteor 1-31 Rocket 4.3 20:58:26 10° SSW 21:01:24 28° W 21:04:24 10° NW
OAO 3 Rocket 3.6 20:58:26 10° WSW 21:02:40 39° S 21:05:58 15° ESE
Cosmos 1570 Rocket 4.1 20:57:25 10° SSW 21:02:44 87° WNW 21:08:06 10° NNE
Cosmos 1844 Rocket 2.6 20:59:15 10° SSW 21:04:46 70° ESE 21:10:18 10° NNE
USA 245 4.5 21:03:10 15° ESE 21:05:17 24° ENE 21:08:02 10° NNE
EXPRESS MD2 3.4 21:01:34 10° NW 21:06:05 56° NNE 21:08:14 17° E
SL-14 R/B 3.8 21:06:08 17° SSE 21:08:28 35° E 21:11:52 10° NNE
Cosmos 1238 Rocket 3.4 21:04:52 10° S 21:09:44 78° W 21:14:33 10° N
Meteor 2-10 Rocket 3.9 21:04:30 10° N 21:10:15 60° ENE 21:14:47 16° SSE
ERS-1 Rocket 4.2 21:10:04 10° SSW 21:14:44 39° W 21:19:25 10° NNW
CZ-4C R/B 3.1 21:08:18 10° NNW 21:15:36 82° ENE 21:22:42 17° SE
Cosmos 1151 Rocket 4.2 21:14:27 19° SE 21:16:15 25° E 21:19:47 10° NE
Cosmos 1066 Rocket 4.2 21:15:41 10° S 21:21:20 88° E 21:27:10 10° N
Meteor 2-4 Rocket 4.2 21:17:43 10° SSW 21:23:21 64° WNW 21:29:11 10° N
SL-24 R/B - RUBIN 2 3.9 21:20:49 10° SW 21:25:25 70° NW 21:29:49 10° NNE
Cosmos 1844 3.8 21:20:06 10° SSW 21:25:52 88° WNW 21:31:42 10° NNE
CZ-4B R/B 4.2 21:24:45 20° SE 21:27:42 40° ENE 21:32:30 10° N
Okean O Rocket 1.7 21:24:41 16° S 21:28:03 72° WSW 21:32:25 10° NNW
SL-08 R/B 4.2 21:23:49 10° N 21:28:14 49° WNW 21:32:37 10° SW
SL-16 R/B 4.0 21:24:50 10° NW 21:29:22 25° WSW 21:33:53 10° SSW
Cosmos 1766 Rocket 4.0 21:26:13 10° NNW 21:30:32 58° W 21:34:13 14° S
OAO 2 Rocket 3.9 21:27:28 10° SW 21:32:17 37° S 21:35:03 22° ESE
In-Cosmos 22 4.3 21:27:56 13° S 21:32:57 68° E 21:38:41 10° NNE
NOSS 3-2 (C) 3.4 21:31:30 19° S 21:34:30 37° ESE 21:39:33 10° NE
Hubble Space Telescope 2.9 21:36:21 10° SSW 21:36:26 10° SSW 21:36:26 10° SSW
BlueWalker 3 3.4 21:35:12 10° WNW 21:38:03 23° SW 21:39:18 19° SSW
USA 186 1.9 21:41:05 35° SW 21:41:36 42° W 21:43:50 10° NNW
Cosmos 1943 3.7 21:36:37 10° NNW 21:42:04 53° WSW 21:46:00 19° S
Cosmos 1461 3.3 21:40:45 10° NNW 21:44:01 36° NE 21:45:06 28° E
CZ-4B R/B 2.8 21:42:34 33° SE 21:44:05 65° ENE 21:47:59 10° N
Transit 2A Rocket 4.4 21:41:31 10° NNW 21:45:53 82° ENE 21:47:44 33° SE
Meteor 1-18 Rocket 4.5 21:43:32 10° SSW 21:49:17 73° W 21:55:10 10° N
ATLAS 2AS CENTAUR R/B 3.8 21:44:35 10° NW 21:50:36 35° WSW 21:55:36 15° S
Cosmos 2344 4.2 21:48:48 22° SSE 21:52:37 32° ESE 21:58:55 10° NE
Cosmos 1655 Rocket 4.1 21:46:23 10° N 21:52:44 79° W 21:57:18 20° S
Cosmos 2298 Rocket 4.0 21:48:06 10° NNW 21:53:25 86° WSW 21:56:10 29° SSE
Cosmos 2150 Rocket 4.1 21:49:42 10° NNW 21:55:07 77° WSW 21:57:59 28° S
Cosmos 1500 Rocket 3.9 21:51:18 10° N 21:55:31 49° E 21:56:48 36° SE
Sich 1 3.0 21:51:17 10° N 21:55:33 78° W 21:57:32 31° S
Iridium 4 Rocket 4.2 21:55:05 29° SE 21:57:09 41° E 22:02:00 10° NNE
BREEZE-M R/B 3.9 21:57:27 33° SE 21:58:00 34° SE 22:04:22 10° ENE
GP-B 3.4 21:56:04 10° NNE 22:00:17 47° E 22:01:23 38° SE
Cosmos 1607 4.4 21:55:43 10° NNW 22:02:00 53° NE 22:05:32 26° ESE
Terra 4.3 22:00:11 10° WSW 22:02:37 14° W 22:05:04 10° WNW
NOSS 2-3 (D) 3.0 22:07:03 50° S 22:07:48 65° ESE 22:11:28 10° NE
Cosmos 1758 3.4 22:04:24 10° NNW 22:08:03 60° W 22:09:09 40° SSW
Cosmos 2285 Rocket 4.1 22:03:40 10° NNW 22:10:01 69° ENE 22:13:01 33° SE
Cosmos 1538 Rocket 4.2 22:11:36 39° SSE 22:13:03 50° ESE 22:18:04 10° NNE
Milstar 3 Cent rocket 3.6 22:11:52 10° SW 22:13:37 17° SSW 22:13:37 17° SSW
Cosmos 1943 Rocket 3.8 22:16:33 18° E 22:16:33 18° E 22:19:59 10° ENE
SPOT 3 Rocket 4.1 22:14:32 25° SSW 22:17:16 50° W 22:22:16 10° NNW
Cosmos 1244 Rocket 4.5 22:14:23 10° N 22:20:35 80° W 22:23:43 31° S
Cosmos 1328 Rocket 4.3 22:24:40 35° E 22:24:45 35° E 22:28:43 10° NNE
Ariane Rocket 3.5 22:24:12 31° SSW 22:26:25 54° W 22:31:23 10° NNW
HBTSS-SV1 4.3 22:22:20 10° WSW 22:26:41 69° S 22:27:25 56° ESE
Lacrosse 5 rocket 3.2 22:30:44 16° ENE 22:30:44 16° ENE 22:31:33 10° ENE
SL-08 R/B 4.4 22:24:15 10° N 22:30:24 80° W 22:33:07 35° S
Cosmos 1805 Rocket 3.9 22:28:22 10° NNW 22:32:36 56° W 22:33:44 42° SW
Cosmos 1340 Rocket 4.0 22:30:13 10° NNW 22:33:32 30° W 22:34:26 27° WSW
Cosmos 724 4.2 22:28:06 10° NNW 22:33:56 84° WSW 22:35:51 44° SSE
NOSS 2-3 (E) 3.6 22:33:45 29° WSW 22:35:24 58° NW 22:39:03 10° NNE
Cosmos 1408 Rocket 4.2 22:32:26 10° NNW 22:36:42 50° W 22:37:56 38° SW
Cosmos 1703 3.3 22:37:14 54° WNW 22:37:14 54° WNW 22:40:08 10° N
Cosmos 1666 Rocket 4.1 22:33:05 10° N 22:37:13 41° ENE 22:37:29 40° E
USA 215 3.5 22:37:29 25° ESE 22:41:24 64° NE 22:47:50 10° NW
Cosmos 1743 Rocket 3.5 22:39:52 10° NNW 22:44:11 75° W 22:44:48 62° SSW
S3M 3.8 22:48:41 44° S 22:50:43 80° E 22:56:52 10° N
CZ-2C R/B 4.2 22:55:08 21° WNW 22:55:08 21° WNW 22:56:34 10° NW
Meteor 1-22 Rocket 4.0 22:49:16 10° NNW 22:54:34 81° W 22:55:47 54° S
Meteor 1-15 Rocket 4.2 22:54:03 10° N 22:59:53 77° E 23:01:13 54° SSE
ARGOS Delta rocket 4.2 22:56:32 10° NNE 23:01:47 55° E 23:02:18 53° ESE
Cosmos 1833 Rocket 2.7 22:57:40 10° NNW 23:03:20 75° ENE 23:04:36 54° SE
Cosmos 1953 2.6 23:00:45 10° NNW 23:03:47 56° NW 23:03:47 56° NW
Cosmos 883 Rocket 4.4 23:03:52 49° S 23:05:42 85° E 23:11:52 10° N
Meteor 1-16 Rocket 4.4 23:02:09 10° N 23:07:37 58° ENE 23:08:42 49° ESE
Cosmos 1709 Rocket 4.0 23:01:15 10° N 23:07:39 86° E 23:09:28 50° SSE
Cosmos 2082 Rocket 4.3 23:04:45 10° N 23:08:35 18° NE 23:11:52 12° E
Meteor 1-23 Rocket 4.1 23:07:56 59° SSE 23:09:00 78° E 23:14:35 10° NNE
Cosmos 2278 Rocket 2.8 23:09:54 40° ESE 23:09:54 40° ESE 23:15:07 10° NE
Cosmos 1633 Rocket 2.9 23:10:41 10° N 23:15:02 88° NNW 23:15:02 88° NNW
Cosmos 1680 Rocket 3.4 23:22:43 66° ESE 23:22:54 67° ESE 23:28:04 10° NNE
Cosmos 494 Rocket 4.1 23:24:39 57° ESE 23:24:40 57° ESE 23:29:48 10° NNE
Cosmos 1400 Rocket 4.3 23:23:01 10° NNE 23:25:30 26° NE 23:25:30 26° NE
CZ-2C R/B 4.0 23:24:41 10° NNE 23:29:37 34° E 23:29:38 34° E
Helios 1B rocket 3.1 23:31:35 43° NNW 23:31:35 43° NNW 23:34:01 10° NNW
Meteor 1-12 Rocket 4.3 23:27:09 10° N 23:32:48 67° E 23:33:43 58° SE
Helios 1A 4.0 23:29:13 10° N 23:32:50 35° WNW 23:33:09 35° W
Cosmos 2056 Rocket 3.9 23:28:02 10° N 23:33:00 49° ENE 23:33:39 46° E
ARIANE 5 R/B 2.7 23:36:34 71° ENE 23:36:34 71° ENE 23:40:53 10° N
USA 238 DEB 3.3 23:36:16 57° SSW 23:37:37 81° ESE 23:44:12 10° NE
USA 238 3.3 23:36:31 57° SSW 23:37:50 81° ESE 23:44:25 10° NE
Okean 2 4.0 23:42:05 50° NNW 23:42:05 50° NNW 23:45:12 10° N
ACS3 Solar Sail 3.2 23:38:26 10° NE 23:42:44 21° E 23:43:12 21° E
Cosmos 1470 Rocket 3.9 23:42:34 10° NNW 23:46:41 59° WNW 23:46:41 59° WNW
ALOS 2 2.6 23:49:18 75° NNE 23:49:18 75° NNE 23:53:24 10° N
Cosmos 1420 Rocket 4.2 23:48:07 10° NNW 23:53:12 56° WSW 23:53:18 56° WSW
Cosmos 1933 Rocket 3.8 23:50:04 10° N 23:53:53 60° NE 23:53:53 60° NE
Cosmos 2369 Rocket 4.4 23:55:37 11° E 23:55:37 11° E 23:56:56 10° E
